Location: Soapstone Prairie Natural Area
(40.9437°N, 105.0829°W)
Time: 10:34:41
(UTC-06:00)

ISS - Visible Passes

Search period start: 04 September 2015 00:00
Search period end: 14 September 2015 00:00
Orbit: 400 x 403 km, 51.6° (Epoch: 01 September)

Date Brightness Start Highest point End Pass type
(mag) Time Alt. Az. Time Alt. Az. Time Alt. Az.
06 Sep -0.3 05:50:01 10° SE 05:50:46 11° SE 05:51:41 10° ESE visible
08 Sep -1.3 05:37:40 10° S 05:40:22 25° SE 05:43:07 10° ENE visible
09 Sep -0.6 04:46:09 11° SSE 04:47:15 13° SE 04:48:51 10° ESE visible
10 Sep -2.9 05:28:00 20° SW 05:30:04 59° SE 05:33:17 10° ENE visible
11 Sep -1.7 04:37:08 28° SE 04:37:08 28° SE 04:39:46 10° ENE visible
12 Sep -3.2 05:18:48 36° W 05:19:53 60° NNW 05:23:07 10° NE visible
13 Sep -1.7 04:27:48 35° ENE 04:27:48 35° ENE 04:29:51 10° ENE visible
13 Sep -1.5 06:00:41 10° WNW 06:03:17 21° NNW 06:05:52 10° NNE visible
